Regional Weather Roundup
Issued by NWS

Home | Current Version | Previous Version | Graphics & Text | Print | Product List | Glossary On
Versions: 1 2 3 4 5 6 7 8 9 10 11 12 13 14 15 16 17 18 19 20 21 22 23 24 25 26 27 28 29 30 31 32 33 34 35 36 37 38 39 40 41 42 43 44 45 46 47 48 49 50
000
ASUS43 KLOT 182000
RWRIL

ILLINOIS REGIONAL WEATHER ROUNDUP
NATIONAL WEATHER SERVICE CHICAGO/ROMEOVILLE IL
200 PM CST THU DEC 18 2014

NOTE: "FAIR" INDICATES FEW OR NO CLOUDS BELOW 12,000 FEET WITH NO
SIGNIFICANT WEATHER AND/OR OBSTRUCTIONS TO VISIBILITY.

* THESE STATIONS ARE NOT UNDER NWS QUALITY CONTROL. THEY ALSO MAY NOT
  REPORT WEATHER SUCH AS PRECIPITATION OR FOG.

ILZ001-002-007-009-015-016-024-182100-
NORTHWEST ILLINOIS

CITY           SKY/WX    TMP DP  RH WIND       PRES   REMARKS
MOLINE         PTSUNNY   30  17  58 NW5       30.24F WCI  25
STERLING*      PTSUNNY   28  18  64 NW5       30.25F WCI  23
$$

ILZ003-004-008-010-011-017-018-182100-
NORTH CENTRAL ILLINOIS

CITY           SKY/WX    TMP DP  RH WIND       PRES   REMARKS
ROCKFORD       CLOUDY    27  16  63 N5        30.25F WCI  22
$$

ILZ005-006-012>014-019>023-182100-
NORTHEAST ILLINOIS

CITY           SKY/WX    TMP DP  RH WIND       PRES   REMARKS
CHICAGO-OHARE  CLOUDY    28  18  66 NW3       30.21F
CHICAGO-MIDWAY CLOUDY    29  18  63 SW8       30.23F WCI  21
AURORA         PTSUNNY   27  17  66 W3        30.23F
WAUKEGAN       CLOUDY    28  19  69 VRB6      30.21F WCI  22
DUPAGE AIRPORT CLOUDY    28  17  63 CALM      30.21F
WHEELING       CLOUDY    27  18  69 NW5       30.24F WCI  22
NORTHERLY ISL    N/A     28  17  63 SW3         N/A
$$

LMZ740>746-182100-
SOUTHERN LAKE MICHIGAN

STATION/POSITION SKY/WX   TEMP    WIND        PRES    VSBY  WAVE
                          AIR SEA DIR/SP/G                  HT/PER
                          (F)     (DEG/KT/KT) (MB)    (MI)  (FT/S)
WAUKEGAN HARBOR            27      CALM  /  7   N/A
HARRISON CRIB              27     230/  5/  6   N/A
BURNHAM HARBOR             28     170/  4/  8   N/A
CALUMET HARBOR             26     210/  5/  7 1022.6F
$$

ILZ025>027-034>036-040-047-049-050-058-095>099-182100-
WEST-CENTRAL ILLINOIS

CITY           SKY/WX    TMP DP  RH WIND       PRES   REMARKS
QUINCY         CLOUDY    29  24  82 NE5       30.23F WCI  24
$$

ILZ028>032-037-038-041>044-048-051>054-059>061-182100-
CENTRAL ILLINOIS

CITY           SKY/WX    TMP DP  RH WIND       PRES   REMARKS
DECATUR        CLOUDY    29  23  78 S3        30.24F HAZE
PEORIA         CLOUDY    29  19  66 NW3       30.25F
SPRINGFIELD    CLOUDY    31  24  75 NW3       30.24F
TAYLORVILLE    NOT AVBL
$$

ILZ033-039-045-046-055>057-062-063-182100-
EAST-CENTRAL ILLINOIS

CITY           SKY/WX    TMP DP  RH WIND       PRES   REMARKS
CHAMPAIGN      CLOUDY    28  21  75 W5        30.24R WCI  23
MATTOON        CLOUDY    30  21  69 NW6       30.22F WCI  24
$$

ILZ079-100>102-182100-
SOUTHWEST ILLINOIS

CITY           SKY/WX    TMP DP  RH WIND       PRES   REMARKS
ALTON          CLOUDY    34  23  64 NE6       30.24F WCI  29
CAHOKIA*       CLOUDY    35  29  78 CALM      30.23F
$$

ILZ064>066-069>071-074>076-080>082-084>086-088>090-092>094-182100-
SOUTH-CENTRAL ILLINOIS

CITY           SKY/WX    TMP DP  RH WIND       PRES   REMARKS
CARBONDALE     CLOUDY    34  30  85 CALM      30.23F
MARION         CLOUDY    36  32  87 NE5       30.24F WCI  32
MT. VERNON     CLOUDY    34  23  64 CALM      30.23F
$$

ILZ067-068-072-073-078-083-087-091-182100-
SOUTHEAST ILLINOIS

CITY           SKY/WX    TMP DP  RH WIND       PRES   REMARKS
LAWRENCEVILLE  CLOUDY    31  23  72 CALM      30.25F
$$

ABBREVIATIONS USED IN REMARKS
   TC - TEMPERATURE IN CELSIUS
  WCI - WIND CHILL INDEX
   HX - HEAT INDEX
  VSB - VISIBILITY
$$




USA.gov is the U.S. government's official web portal to all federal, state and local government web resources and services.